DW0218 Weather Reports


Display with metric or nautical units.
time (UTC)temp
F
wind
direction
speed
MPH
gust
MPH
rain 1hr
in
rain 24hr
in
rain mn
in
humidity
%
barometer
mb
20260510145805 54 5 2.0 7.0 0.00 0.00 0.00 75 1014.0
20260510144806 54 351 2.0 6.0 0.00 0.00 0.00 78 1014.0
20260510143806 54 357 3.0 6.0 0.00 0.00 0.00 74 1014.0
20260510142805 55 7 2.0 3.0 0.00 0.00 0.00 74 1014.0
20260510141806 55 7 3.0 5.0 0.00 0.00 0.00 73 1014.0
20260510140806 54 11 2.0 5.0 0.00 0.00 0.00 73 1014.0
20260510135805 55 41 2.0 6.0 0.00 0.00 0.00 74 1014.0
20260510134805 55 358 2.0 5.0 0.00 0.00 0.00 73 1014.0
20260510133807 55 19 0.0 3.0 0.00 0.00 0.00 72 1015.0
20260510132806 55 343 1.0 5.0 0.00 0.00 0.00 66 1015.0
20260510130805 56 30 2.0 5.0 0.00 0.00 0.00 61 1015.0
20260510125805 57 34 1.0 6.0 0.00 0.00 0.00 60 1015.0
20260510124805 57 357 2.0 5.0 0.00 0.00 0.00 59 1015.0
20260510123805 58 5 2.0 7.0 0.00 0.00 0.00 60 1015.0
20260510115805 58 7 2.0 5.0 0.00 0.00 0.00 60 1015.0
20260510111805 56 353 2.0 6.0 0.00 0.00 0.00 62 1015.0
20260510104805 55 352 2.0 8.0 0.00 0.00 0.00 65 1016.0
20260510101806 55 355 1.0 6.0 0.00 0.00 0.00 64 1016.0
20260510100805 56 0 2.0 5.0 0.00 0.00 0.00 65 1017.0
20260510095805 56 354 2.0 6.0 0.00 0.00 0.00 65 1017.0
20260510092806 55 344 2.0 6.0 0.00 0.00 0.00 67 1016.0
20260510091805 55 8 3.0 8.0 0.00 0.00 0.00 68 1016.0
20260510085805 54 347 1.0 5.0 0.00 0.00 0.00 73 1016.0
20260510081805 51 22 2.0 5.0 0.00 0.00 0.00 81 1016.0
20260510075805 50 12 2.0 5.0 0.00 0.00 0.00 83 1016.0
20260510074805 50 349 2.0 7.0 0.00 0.00 0.00 84 1016.0
20260510063805 49 346 1.0 5.0 0.00 0.00 0.00 87 1016.0
20260510062805 49 3 2.0 3.0 0.00 0.00 0.00 88 1016.0
20260510055805 48 351 0.0 6.0 0.00 0.00 0.00 91 1016.0
20260510053805 48 356 1.0 5.0 0.00 0.00 0.00 91 1015.0
20260510043806 49 22 0.0 6.0 0.00 0.00 0.00 89 1016.0
20260510041804 49 0 1.0 5.0 0.00 0.00 0.00 88 1015.0
20260510040805 49 34 1.0 5.0 0.00 0.00 0.00 88 1016.0
20260510035806 49 0 1.0 5.0 0.00 0.00 0.00 87 1016.0
20260510030805 50 0 1.0 3.0 0.00 0.00 0.00 81 1016.0
20260510023805 51 335 1.0 3.0 0.00 0.00 0.00 72 1016.0
20260510022806 51 351 2.0 6.0 0.00 0.00 0.00 68 1016.0
20260510021805 51 353 1.0 3.0 0.00 0.00 0.00 66 1016.0
20260510015805 52 0 0.0 2.0 0.00 0.00 0.00 64 1016.0
20260510013805 52 0 0.0 2.0 0.00 0.00 0.00 61 1016.0
20260510010805 53 45 0.0 2.0 0.00 0.00 0.00 58 1016.0
20260510005805 53 22 0.0 2.0 0.00 0.00 0.00 59 1016.0
20260510004805 53 22 0.0 3.0 0.00 0.00 0.00 58 1016.0
20260510003806 54 33 1.0 3.0 0.00 0.00 0.00 57 1016.0
20260510002805 54 0 0.0 3.0 0.00 0.00 0.00 56 1016.0
20260510001805 54 45 0.0 6.0 0.00 0.00 0.00 53 1016.0
20260510000805 54 8 0.0 3.0 0.00 0.00 0.00 52 1016.0
20260509233805 54 0 0.0 3.0 0.00 0.00 0.00 48 1015.0
20260509231805 55 9 0.0 5.0 0.00 0.00 0.00 47 1016.0
20260509225805 55 344 1.0 3.0 0.00 0.00 0.00 47 1016.0
20260509224804 55 45 0.0 3.0 0.00 0.00 0.00 47 1016.0
20260509223805 56 0 0.0 2.0 0.00 0.00 0.00 47 1015.0
20260509220805 56 5 0.0 3.0 0.00 0.00 0.00 47 1017.0
20260509215805 57 0 0.0 2.0 0.00 0.00 0.00 48 1017.0
20260509214804 57 0 0.0 2.0 0.00 0.00 0.00 48 1017.0
20260509213804 58 0 0.0 2.0 0.00 0.00 0.00 47 1015.0
20260509212805 58 0 0.0 1.0 0.00 0.00 0.00 47 1017.0
20260509211805 58 0 0.0 2.0 0.00 0.00 0.00 47 1017.0
20260509205805 59 346 0.0 6.0 0.00 0.00 0.00 47 1017.0
20260509204805 59 0 0.0 3.0 0.00 0.00 0.00 47 1017.0
20260509202805 60 344 1.0 5.0 0.00 0.00 0.00 49 1016.0
20260509201805 60 0 0.0 2.0 0.00 0.00 0.00 50 1016.0
20260509195805 62 338 0.0 2.0 0.00 0.00 0.00 49 1015.0
20260509193806 62 0 0.0 2.0 0.00 0.00 0.00 48 1015.0
20260509190806 64 315 0.0 2.0 0.00 0.00 0.00 47 1015.0
20260509185806 64 1 0.0 3.0 0.00 0.00 0.00 46 1015.0
20260509180806 66 0 0.0 1.0 0.00 0.00 0.00 45 1015.0
20260509175806 67 0 1.0 3.0 0.00 0.00 0.00 44 1014.0
20260509174806 67 324 0.0 2.0 0.00 0.00 0.00 44 1014.0
20260509173806 67 338 1.0 3.0 0.00 0.00 0.00 44 1014.0
20260509172805 67 270 0.0 5.0 0.00 0.00 0.00 44 1014.0
20260509170806 68 338 1.0 5.0 0.00 0.00 0.00 43 1014.0
20260509162805 68 23 0.0 2.0 0.00 0.00 0.00 44 1015.0
20260509160806 69 239 2.0 7.0 0.00 0.00 0.00 44 1014.0
20260509155805 69 338 1.0 6.0 0.00 0.00 0.00 45 1015.0
20260509154806 69 311 1.0 5.0 0.00 0.00 0.00 46 1015.0
20260509152805 68 224 3.0 6.0 0.00 0.00 0.00 46 1015.0